DOC99 ENLX-ZZZZ

Flight info

Callsign DOC99
Flight time N/A
Altitude 2000
Route ROVERKOLLEN DCT NITTEDAL DCT RAASJOEN DCT HURDAL DCT TANGEN DCT IBSOL/N0120A075 IFR KY988 GIMBU DCT TOLGA/N0120A030 VFR DCT OS
Aircraft EC45/M-SBDGRYZ/L

Departure

Time 2026-05-07 17:54
Airport Lørenskog Heliport, Ahus (ENLX)

Arrival

Time N/A
Airport ZZZZ
Time Latitude Longitude Altitude Speed Heading
2026-05-07 17:45 59.93229 10.98692 562 ft 0 kts 108°
2026-05-07 17:52 59.93246 10.98677 582 ft 11 kts 151°
2026-05-07 17:53 59.93232 10.98634 642 ft 7 kts 149°
2026-05-07 17:53 59.93181 10.98595 694 ft 6 kts 148°
2026-05-07 17:53 59.93172 10.98715 729 ft 13 kts 146°
2026-05-07 17:53 59.93170 10.98823 775 ft 7 kts 147°
2026-05-07 17:54 59.93135 10.98820 779 ft 19 kts 200°
2026-05-07 17:54 59.93196 10.98475 876 ft 39 kts 298°
2026-05-07 17:54 59.93368 10.97902 1069 ft 62 kts 287°
2026-05-07 17:54 59.93511 10.97012 1296 ft 74 kts 279°
2026-05-07 17:55 59.93753 10.95822 1181 ft 99 kts 296°
2026-05-07 17:55 59.93844 10.95534 1275 ft 92 kts 300°
2026-05-07 17:55 59.93899 10.95423 1429 ft 20 kts 247°
2026-05-07 17:56 59.94114 10.94679 1277 ft 93 kts 281°
2026-05-07 17:56 59.94261 10.93242 1141 ft 118 kts 270°
2026-05-07 17:56 59.94610 10.91775 1169 ft 112 kts 308°
2026-05-07 17:56 59.95303 10.91154 1237 ft 113 kts 349°
2026-05-07 17:57 59.96080 10.91179 1302 ft 110 kts 359°
2026-05-07 17:57 59.96583 10.91195 1356 ft 108 kts 358°
2026-05-07 17:57 59.97539 10.91001 1598 ft 94 kts 353°
2026-05-07 17:57 59.98205 10.90851 1811 ft 103 kts 353°
2026-05-07 17:58 59.98948 10.90635 1911 ft 113 kts 349°
2026-05-07 17:58 59.99749 10.90341 1934 ft 120 kts 346°
2026-05-07 17:58 60.00606 10.89953 1774 ft 131 kts 345°
2026-05-07 17:58 60.01483 10.89493 1702 ft 129 kts 345°
2026-05-07 17:59 60.02342 10.89114 1712 ft 123 kts 348°
2026-05-07 17:59 60.03179 10.88780 1744 ft 123 kts 349°
2026-05-07 17:59 60.04009 10.88401 1788 ft 122 kts 347°
2026-05-07 17:59 60.04837 10.88085 1882 ft 120 kts 348°
2026-05-07 18:00 60.05648 10.87821 1966 ft 119 kts 352°
2026-05-07 18:00 60.06471 10.87578 2018 ft 120 kts 349°
2026-05-07 18:00 60.07308 10.87109 1947 ft 126 kts 342°
2026-05-07 18:00 60.08169 10.86654 1930 ft 125 kts 347°
2026-05-07 18:01 60.09021 10.86337 1967 ft 124 kts 347°
2026-05-07 18:01 60.09834 10.85731 1934 ft 127 kts 332°
2026-05-07 18:01 60.10584 10.84832 1922 ft 126 kts 327°
2026-05-07 18:01 60.11342 10.83976 1945 ft 123 kts 335°
2026-05-07 18:02 60.12885 10.82500 1997 ft 122 kts 336°
2026-05-07 18:02 60.13647 10.81788 2079 ft 117 kts 335°
2026-05-07 18:02 60.14384 10.81197 2209 ft 118 kts 337°
2026-05-07 18:03 60.15136 10.80625 2440 ft 113 kts 340°
2026-05-07 18:03 60.15888 10.80075 2488 ft 118 kts 340°
2026-05-07 18:03 60.16734 10.79787 2374 ft 120 kts
2026-05-07 18:03 60.17531 10.80011 2438 ft 113 kts
2026-05-07 18:04 60.18306 10.80205 2489 ft 109 kts
2026-05-07 18:04 60.19064 10.80375 2535 ft 110 kts
2026-05-07 18:04 60.19787 10.80723 2634 ft 108 kts 23°
2026-05-07 18:04 60.20436 10.81548 2642 ft 114 kts 39°
2026-05-07 18:05 60.21127 10.82354 2647 ft 116 kts 21°
2026-05-07 18:05 60.21903 10.82817 2641 ft 117 kts 13°
2026-05-07 18:05 60.22700 10.83206 2645 ft 118 kts 15°
2026-05-07 18:05 60.23502 10.83602 2646 ft 119 kts 13°
2026-05-07 18:06 60.24300 10.83981 2648 ft 120 kts 13°
2026-05-07 18:06 60.25111 10.84364 2650 ft 120 kts 13°
2026-05-07 18:06 60.25920 10.84771 2649 ft 120 kts 17°
2026-05-07 18:06 60.26698 10.85392 2647 ft 120 kts 26°
2026-05-07 18:07 60.27446 10.86142 2650 ft 120 kts 27°
2026-05-07 18:07 60.28191 10.86900 2649 ft 120 kts 27°
2026-05-07 18:07 60.28936 10.87662 2650 ft 120 kts 27°
2026-05-07 18:07 60.29680 10.88423 2649 ft 120 kts 27°
2026-05-07 18:08 60.30412 10.89173 2651 ft 120 kts 27°
2026-05-07 18:08 60.31155 10.89934 2651 ft 120 kts 27°
2026-05-07 18:08 60.31896 10.90695 2649 ft 120 kts 27°
2026-05-07 18:08 60.32636 10.91463 2647 ft 119 kts 28°
2026-05-07 18:09 60.33366 10.92266 2646 ft 119 kts 29°
2026-05-07 18:09 60.34093 10.93076 2672 ft 120 kts 30°
2026-05-07 18:09 60.34833 10.93913 2933 ft 124 kts 30°
2026-05-07 18:09 60.35596 10.94793 3190 ft 128 kts 30°
2026-05-07 18:10 60.36382 10.95708 3454 ft 132 kts 31°
2026-05-07 18:10 60.37171 10.96629 3680 ft 134 kts 30°
2026-05-07 18:10 60.37976 10.97564 3807 ft 133 kts 30°
2026-05-07 18:10 60.38725 10.98426 3938 ft 132 kts 30°
2026-05-07 18:11 60.39522 10.99335 4003 ft 130 kts 30°
2026-05-07 18:11 60.40042 10.99924 4018 ft 128 kts 30°
2026-05-07 18:11 60.41075 11.01088 4032 ft 126 kts 30°
2026-05-07 18:11 60.41834 11.01942 4041 ft 125 kts 30°
2026-05-07 18:12 60.42589 11.02789 4041 ft 124 kts 30°
2026-05-07 18:12 60.43340 11.03631 4043 ft 123 kts 30°
2026-05-07 18:12 60.44088 11.04471 4042 ft 123 kts 30°
2026-05-07 18:12 60.44824 11.05298 4044 ft 122 kts 30°
2026-05-07 18:13 60.45568 11.06134 4044 ft 122 kts 30°
2026-05-07 18:13 60.46311 11.06964 4044 ft 122 kts 29°
2026-05-07 18:13 60.47053 11.07793 4045 ft 122 kts 29°
2026-05-07 18:13 60.47794 11.08620 4041 ft 121 kts 29°
2026-05-07 18:14 60.48534 11.09446 4043 ft 122 kts 29°
2026-05-07 18:14 60.49273 11.10275 4044 ft 121 kts 30°
2026-05-07 18:14 60.50010 11.11102 4044 ft 121 kts 29°
2026-05-07 18:14 60.50738 11.11920 4042 ft 121 kts 30°
2026-05-07 18:15 60.51476 11.12752 4044 ft 122 kts 30°
2026-05-07 18:15 60.52215 11.13585 4039 ft 121 kts 30°
2026-05-07 18:15 60.52953 11.14420 4041 ft 122 kts 30°
2026-05-07 18:15 60.53692 11.15254 4040 ft 121 kts 30°
2026-05-07 18:16 60.54430 11.16088 4040 ft 121 kts 30°
2026-05-07 18:16 60.55167 11.16925 4040 ft 121 kts 30°
2026-05-07 18:16 60.55842 11.17952 4040 ft 122 kts 41°
2026-05-07 18:16 60.56465 11.19112 4041 ft 122 kts 43°
2026-05-07 18:17 60.57075 11.20271 4041 ft 122 kts 43°
2026-05-07 18:17 60.57692 11.21445 4043 ft 122 kts 43°
2026-05-07 18:17 60.58309 11.22620 4040 ft 122 kts 43°
2026-05-07 18:17 60.58927 11.23797 4043 ft 122 kts 43°
2026-05-07 18:18 60.59547 11.24969 4045 ft 122 kts 42°
2026-05-07 18:18 60.60207 11.26041 4043 ft 122 kts 36°
2026-05-07 18:18 60.60920 11.26964 4042 ft 122 kts 30°
2026-05-07 18:18 60.61671 11.27757 4042 ft 122 kts 25°
2026-05-07 18:19 60.62444 11.28440 4040 ft 121 kts 21°
2026-05-07 18:19 60.63231 11.29046 4095 ft 122 kts 20°
2026-05-07 18:19 60.64043 11.29626 4352 ft 126 kts 18°
2026-05-07 18:19 60.64894 11.30183 4617 ft 130 kts 17°
2026-05-07 18:20 60.65776 11.30713 4882 ft 134 kts 15°
2026-05-07 18:20 60.66670 11.31212 5135 ft 136 kts 14°
2026-05-07 18:20 60.67591 11.31699 5370 ft 138 kts 13°
2026-05-07 18:20 60.68521 11.32165 5577 ft 138 kts 13°
2026-05-07 18:21 60.69457 11.32619 5791 ft 138 kts 12°
2026-05-07 18:21 60.70396 11.33063 5996 ft 138 kts 12°
2026-05-07 18:21 60.71336 11.33502 6211 ft 139 kts 12°
2026-05-07 18:21 60.72276 11.33935 6428 ft 139 kts 12°
2026-05-07 18:22 60.73218 11.34370 6628 ft 139 kts 11°
2026-05-07 18:22 60.73845 11.34659 6760 ft 139 kts 11°
2026-05-07 18:22 60.75096 11.35226 6917 ft 138 kts 10°
2026-05-07 18:22 60.76030 11.35638 6962 ft 136 kts
2026-05-07 18:23 60.76945 11.36039 6981 ft 133 kts
2026-05-07 18:23 60.77845 11.36437 6989 ft 131 kts
2026-05-07 18:23 60.78733 11.36833 6996 ft 130 kts
2026-05-07 18:23 60.79616 11.37228 6995 ft 129 kts
2026-05-07 18:24 60.80493 11.37623 6990 ft 129 kts 10°
2026-05-07 18:24 60.81366 11.38018 6986 ft 128 kts 10°
2026-05-07 18:24 60.82233 11.38446 6985 ft 128 kts 13°
2026-05-07 18:24 60.83077 11.38971 6974 ft 128 kts 15°
2026-05-07 18:25 60.83925 11.39528 6982 ft 128 kts 15°
2026-05-07 18:25 60.84774 11.40093 6985 ft 128 kts 16°
2026-05-07 18:25 60.85621 11.40661 6982 ft 128 kts 16°
2026-05-07 18:25 60.86466 11.41230 6983 ft 128 kts 16°
2026-05-07 18:26 60.87312 11.41802 6987 ft 128 kts 16°
2026-05-07 18:26 60.88160 11.42385 7114 ft 130 kts 17°
2026-05-07 18:26 60.89016 11.42973 7116 ft 131 kts 16°
2026-05-07 18:26 60.89920 11.43593 7062 ft 143 kts 16°
2026-05-07 18:27 60.90874 11.44252 7028 ft 151 kts 17°
2026-05-07 18:27 60.91869 11.44937 7013 ft 150 kts 17°
2026-05-07 18:27 60.92865 11.45620 7002 ft 153 kts 17°
2026-05-07 18:27 60.93881 11.46321 6999 ft 155 kts 17°
2026-05-07 18:28 60.94905 11.47026 6996 ft 155 kts 17°
2026-05-07 18:28 60.95928 11.47729 6995 ft 155 kts 17°
2026-05-07 18:28 60.96953 11.48432 6998 ft 155 kts 17°
2026-05-07 18:28 60.97978 11.49134 6998 ft 155 kts 17°
2026-05-07 18:29 60.98989 11.49827 6994 ft 156 kts 17°
2026-05-07 18:29 61.00015 11.50532 6994 ft 155 kts 17°
2026-05-07 18:29 61.01040 11.51236 6991 ft 155 kts 17°
2026-05-07 18:29 61.02065 11.51940 6995 ft 155 kts 17°
2026-05-07 18:30 61.03088 11.52644 6998 ft 155 kts 17°
2026-05-07 18:30 61.04109 11.53346 6997 ft 154 kts 17°
2026-05-07 18:30 61.05127 11.54048 6997 ft 154 kts 17°
2026-05-07 18:30 61.06145 11.54749 7001 ft 154 kts 17°
2026-05-07 18:31 61.07164 11.55453 6998 ft 154 kts 17°
2026-05-07 18:31 61.08169 11.56146 6998 ft 154 kts 17°
2026-05-07 18:31 61.09185 11.56848 6998 ft 154 kts 17°
2026-05-07 18:31 61.10205 11.57553 6997 ft 155 kts 17°
2026-05-07 18:32 61.11225 11.58258 6996 ft 155 kts 17°
2026-05-07 18:32 61.12244 11.58963 7000 ft 154 kts 17°
2026-05-07 18:32 61.13285 11.59476 7002 ft 153 kts
2026-05-07 18:32 61.14325 11.59137 6999 ft 152 kts 342°
2026-05-07 18:33 61.15316 11.58392 6998 ft 152 kts 337°
2026-05-07 18:33 61.16295 11.57554 6997 ft 152 kts 335°
2026-05-07 18:33 61.17272 11.56695 6999 ft 153 kts 335°
2026-05-07 18:33 61.18236 11.55843 7001 ft 153 kts 335°
2026-05-07 18:34 61.19211 11.54980 6998 ft 152 kts 335°
2026-05-07 18:34 61.20186 11.54119 6999 ft 152 kts 335°
2026-05-07 18:34 61.21161 11.53256 7001 ft 152 kts 335°
2026-05-07 18:34 61.22139 11.52392 6999 ft 153 kts 335°
2026-05-07 18:35 61.23119 11.51525 6998 ft 153 kts 335°
2026-05-07 18:35 61.24103 11.50655 7001 ft 154 kts 335°
2026-05-07 18:35 61.25087 11.49784 6999 ft 154 kts 335°
2026-05-07 18:35 61.26072 11.48911 7001 ft 154 kts 335°
2026-05-07 18:36 61.27059 11.48036 7003 ft 154 kts 335°
2026-05-07 18:36 61.28032 11.47174 7001 ft 154 kts 335°
2026-05-07 18:36 61.29014 11.46302 7002 ft 154 kts 335°
2026-05-07 18:36 61.29995 11.45432 7002 ft 153 kts 335°
2026-05-07 18:37 61.30978 11.44559 7003 ft 154 kts 335°
2026-05-07 18:37 61.31962 11.43684 7001 ft 154 kts 335°
2026-05-07 18:37 61.32945 11.42811 7001 ft 154 kts 335°
2026-05-07 18:37 61.33929 11.41935 7003 ft 154 kts 335°
2026-05-07 18:38 61.34905 11.41066 7002 ft 155 kts 335°
2026-05-07 18:38 61.35894 11.40184 7003 ft 155 kts 334°
2026-05-07 18:38 61.36887 11.39298 7001 ft 156 kts 334°
2026-05-07 18:38 61.37881 11.38410 6999 ft 155 kts 335°
2026-05-07 18:39 61.38873 11.37524 7001 ft 155 kts 334°
2026-05-07 18:39 61.39867 11.36634 6998 ft 156 kts 334°
2026-05-07 18:39 61.40860 11.35747 6999 ft 155 kts 334°
2026-05-07 18:39 61.41851 11.34861 7003 ft 154 kts 334°
2026-05-07 18:40 61.42840 11.33976 7001 ft 155 kts 334°
2026-05-07 18:40 61.43827 11.33092 7002 ft 155 kts 334°
2026-05-07 18:40 61.44802 11.32218 7000 ft 154 kts 334°
2026-05-07 18:40 61.45789 11.31333 7001 ft 154 kts 334°
2026-05-07 18:41 61.46777 11.30446 7000 ft 155 kts 334°
2026-05-07 18:41 61.47766 11.29557 7000 ft 155 kts 334°
2026-05-07 18:41 61.48758 11.28664 6998 ft 155 kts 334°
2026-05-07 18:41 61.49753 11.27768 7002 ft 156 kts 334°
2026-05-07 18:42 61.50752 11.26868 7002 ft 156 kts 334°
2026-05-07 18:42 61.51750 11.25967 7003 ft 157 kts 334°
2026-05-07 18:42 61.52752 11.25061 6998 ft 157 kts 334°
2026-05-07 18:42 61.53742 11.24167 7001 ft 157 kts 334°
2026-05-07 18:43 61.54746 11.23260 6999 ft 157 kts 334°
2026-05-07 18:43 61.55753 11.22364 7002 ft 158 kts 336°
2026-05-07 18:43 61.56820 11.21800 7002 ft 158 kts 347°
2026-05-07 18:43 61.57905 11.21462 7002 ft 157 kts 351°
2026-05-07 18:44 61.58991 11.21198 7006 ft 157 kts 352°
2026-05-07 18:44 61.60081 11.20959 6999 ft 158 kts 352°
2026-05-07 18:44 61.61171 11.20733 7004 ft 158 kts 352°
2026-05-07 18:44 61.62249 11.20515 7005 ft 157 kts 353°
2026-05-07 18:45 61.63340 11.20298 7004 ft 157 kts 353°
2026-05-07 18:45 61.64432 11.20083 7003 ft 158 kts 353°
2026-05-07 18:45 61.65524 11.19868 7002 ft 158 kts 353°
2026-05-07 18:45 61.66616 11.19654 7007 ft 158 kts 353°
2026-05-07 18:46 61.67709 11.19440 7008 ft 158 kts 353°
2026-05-07 18:46 61.68803 11.19227 7000 ft 158 kts 353°
2026-05-07 18:46 61.69895 11.19013 7008 ft 157 kts 353°
2026-05-07 18:46 61.70970 11.18803 7002 ft 157 kts 353°
2026-05-07 18:47 61.72058 11.18589 7005 ft 157 kts 353°
2026-05-07 18:47 61.73144 11.18329 7005 ft 156 kts 349°
2026-05-07 18:47 61.74206 11.17852 7004 ft 156 kts 345°
2026-05-07 18:47 61.75261 11.17284 6999 ft 157 kts 343°
2026-05-07 18:48 61.76313 11.16684 7008 ft 156 kts 343°
2026-05-07 18:48 61.77361 11.16071 7009 ft 157 kts 343°
2026-05-07 18:48 61.78411 11.15448 7005 ft 157 kts 342°
2026-05-07 18:48 61.79463 11.14819 7005 ft 157 kts 342°
2026-05-07 18:49 61.80499 11.14196 7003 ft 157 kts 342°
2026-05-07 18:49 61.81551 11.13563 7010 ft 157 kts 342°
2026-05-07 18:49 61.82601 11.12929 6999 ft 157 kts 342°
2026-05-07 18:49 61.83653 11.12293 7003 ft 157 kts 342°
2026-05-07 18:50 61.84705 11.11655 7005 ft 157 kts 342°
2026-05-07 18:50 61.85757 11.11017 7002 ft 157 kts 342°
2026-05-07 18:50 61.86810 11.10378 7008 ft 157 kts 342°
2026-05-07 18:50 61.87862 11.09739 6998 ft 157 kts 343°
2026-05-07 18:51 61.88916 11.09098 7010 ft 158 kts 342°
2026-05-07 18:51 61.89969 11.08457 7008 ft 157 kts 343°
2026-05-07 18:51 61.91023 11.07815 7002 ft 157 kts 342°
2026-05-07 18:51 61.92061 11.07183 7000 ft 157 kts 342°
2026-05-07 18:52 61.93101 11.06487 7012 ft 157 kts 340°
2026-05-07 18:52 61.94127 11.05705 7008 ft 157 kts 338°
2026-05-07 18:52 61.95150 11.04891 7008 ft 157 kts 338°
2026-05-07 18:52 61.96170 11.04065 7008 ft 157 kts 338°
2026-05-07 18:53 61.97191 11.03232 7014 ft 157 kts 338°
2026-05-07 18:53 61.98209 11.02398 7004 ft 156 kts 338°
2026-05-07 18:53 61.99226 11.01563 7011 ft 157 kts 338°
2026-05-07 18:53 62.00242 11.00725 7012 ft 157 kts 338°
2026-05-07 18:54 62.01244 10.99897 7007 ft 157 kts 338°
2026-05-07 18:54 62.02263 10.99054 7012 ft 157 kts 338°
2026-05-07 18:54 62.03279 10.98212 7008 ft 157 kts 338°
2026-05-07 18:54 62.04298 10.97368 7013 ft 157 kts 338°
2026-05-07 18:55 62.05314 10.96527 7006 ft 157 kts 337°
2026-05-07 18:55 62.06328 10.95685 7005 ft 156 kts 337°
2026-05-07 18:55 62.07343 10.94843 7008 ft 157 kts 337°
2026-05-07 18:55 62.08384 10.94132 7010 ft 158 kts 343°
2026-05-07 18:56 62.09451 10.93562 7010 ft 158 kts 346°
2026-05-07 18:56 62.10509 10.93048 7002 ft 158 kts 346°
2026-05-07 18:56 62.11583 10.92547 7014 ft 158 kts 347°
2026-05-07 18:56 62.12653 10.92057 7013 ft 157 kts 347°
2026-05-07 18:57 62.13724 10.91570 7012 ft 158 kts 347°
2026-05-07 18:57 62.14798 10.91085 7005 ft 158 kts 347°
2026-05-07 18:57 62.15872 10.90601 7010 ft 158 kts 347°
2026-05-07 18:57 62.16949 10.90117 7012 ft 158 kts 347°
2026-05-07 18:58 62.18022 10.89634 7006 ft 157 kts 347°
2026-05-07 18:58 62.19084 10.89147 6842 ft 155 kts 346°
2026-05-07 18:58 62.20105 10.88660 6623 ft 150 kts 346°
2026-05-07 18:58 62.21107 10.88186 6452 ft 146 kts 347°
2026-05-07 18:59 62.22090 10.87729 6281 ft 144 kts 347°
2026-05-07 18:59 62.23062 10.87283 6124 ft 142 kts 347°
2026-05-07 18:59 62.24026 10.86843 5961 ft 141 kts 347°
2026-05-07 18:59 62.24995 10.86522 5797 ft 141 kts 355°
2026-05-07 19:00 62.25975 10.86552 5628 ft 141 kts
2026-05-07 19:00 62.26938 10.86914 5489 ft 140 kts 12°
2026-05-07 19:00 62.27883 10.87413 5334 ft 140 kts 15°
2026-05-07 19:00 62.28801 10.88000 5210 ft 139 kts 18°
2026-05-07 19:01 62.29717 10.88677 5066 ft 139 kts 20°
2026-05-07 19:01 62.30628 10.89353 4936 ft 139 kts 19°
2026-05-07 19:01 62.31540 10.90017 4813 ft 138 kts 19°
2026-05-07 19:01 62.32448 10.90666 4675 ft 137 kts 19°
2026-05-07 19:02 62.33353 10.91302 4535 ft 136 kts 18°
2026-05-07 19:02 62.34252 10.91924 4398 ft 135 kts 18°
2026-05-07 19:02 62.35145 10.92530 4262 ft 134 kts 18°
2026-05-07 19:02 62.36015 10.93232 4140 ft 133 kts 25°
2026-05-07 19:03 62.36803 10.94209 4018 ft 132 kts 35°
2026-05-07 19:03 62.37513 10.95358 4154 ft 125 kts 40°
2026-05-07 19:03 62.38146 10.96574 4155 ft 119 kts 43°
2026-05-07 19:03 62.38736 10.97763 4009 ft 113 kts 38°
2026-05-07 19:04 62.39360 10.98743 3885 ft 109 kts 34°
2026-05-07 19:04 62.39987 10.99654 3900 ft 108 kts 34°
2026-05-07 19:04 62.40585 11.00647 3937 ft 109 kts 40°
2026-05-07 19:04 62.41146 11.01756 3972 ft 110 kts 43°
2026-05-07 19:05 62.41699 11.02881 3989 ft 109 kts 43°
2026-05-07 19:05 62.42249 11.04001 4008 ft 109 kts 43°
2026-05-07 19:05 62.42788 11.05118 4036 ft 109 kts 44°
2026-05-07 19:05 62.43331 11.06259 4037 ft 109 kts 44°
2026-05-07 19:06 62.43876 11.07393 4043 ft 109 kts 43°
2026-05-07 19:06 62.44998 11.09552 4000 ft 107 kts 40°
2026-05-07 19:06 62.45561 11.10607 3995 ft 107 kts 43°
2026-05-07 19:07 62.46091 11.11756 4017 ft 108 kts 45°
2026-05-07 19:07 62.46604 11.12915 4020 ft 108 kts 46°
2026-05-07 19:07 62.47130 11.14069 4022 ft 108 kts 45°
2026-05-07 19:07 62.47651 11.15226 3963 ft 107 kts 45°
2026-05-07 19:08 62.48174 11.16367 3916 ft 106 kts 45°
2026-05-07 19:08 62.48659 11.17539 3701 ft 104 kts 49°
2026-05-07 19:08 62.49084 11.18775 3566 ft 102 kts 57°
2026-05-07 19:08 62.49372 11.20172 3417 ft 102 kts 71°
2026-05-07 19:09 62.49534 11.21660 3329 ft 102 kts 76°
2026-05-07 19:09 62.49706 11.23146 3333 ft 102 kts 72°
2026-05-07 19:09 62.49975 11.24555 3187 ft 104 kts 61°
2026-05-07 19:09 62.50380 11.25862 3054 ft 107 kts 50°
2026-05-07 19:10 62.50957 11.26937 2989 ft 112 kts 34°
2026-05-07 19:10 62.51664 11.27702 2908 ft 115 kts 24°
2026-05-07 19:10 62.52416 11.28361 2863 ft 118 kts 24°
2026-05-07 19:10 62.53169 11.29109 2983 ft 121 kts 28°
2026-05-07 19:11 62.53885 11.30109 3085 ft 124 kts 38°
2026-05-07 19:11 62.54481 11.31480 3144 ft 126 kts 53°
2026-05-07 19:11 62.54956 11.33027 3167 ft 119 kts 53°
2026-05-07 19:11 62.55473 11.34254 3121 ft 105 kts 44°
2026-05-07 19:12 62.55995 11.35280 3009 ft 100 kts 42°
2026-05-07 19:12 62.56543 11.36098 2727 ft 87 kts 21°
2026-05-07 19:12 62.57080 11.36034 2418 ft 68 kts 343°
2026-05-07 19:12 62.57378 11.35607 2245 ft 38 kts 326°
2026-05-07 19:13 62.57510 11.35297 2104 ft 12 kts 319°
2026-05-07 19:13 62.57537 11.35222 2072 ft 7 kts 343°
2026-05-07 19:13 62.57589 11.35239 2074 ft 8 kts 34°
2026-05-07 19:13 62.57625 11.35302 2070 ft 8 kts 82°
2026-05-07 19:14 62.57603 11.35395 2072 ft 7 kts 143°
2026-05-07 19:14 62.57574 11.35445 2066 ft 4 kts 119°
2026-05-07 19:14 62.57568 11.35470 2060 ft 1 kts 44°
2026-05-07 19:14 62.57570 11.35476 2058 ft 2 kts 50°
2026-05-07 19:15 62.57572 11.35481 2057 ft 2 kts 316°
2026-05-07 19:15 62.57573 11.35482 2056 ft 0 kts 325°